Temp
20 19 19 19 19 19 21 22 24 24 24 23 23 23 22 21 21 19 19 20 19 19 19 19 19 19 20 19 19 19 19 19 19 19 19 19 18 18 19 18 19 19 19 18 18 17 17 17 17
19 19 20 20 19 20 21 23 23 24 23 23 24 23 21 19 19 19 18 20 19 19 19 19 19 19 19 19 19 19 19 19 19 19 19 19 18 19 19 19 18 18 19 18 18 18 17 17 17
20 20 20 18 18 20 22 24 23 23 24 24 23 22 21 18 19 20 19 20 19 20 19 19 19 19 19 19 19 19 19 19 18 19 18 18 19 19 19 19 18 18 19 18 17 18 18 17 17
22 21 20 20 21 22 23 23 24 24 24 24 23 21 21 21 21 21 20 20 19 20 20 20 19 19 19 19 19 19 19 19 19 18 19 18 19 18 18 18 18 18 17 18 18 18 18 17 17
22 21 18 21 24 24 25 25 24 23 24 23 23 20 19 20 21 21 21 20 20 20 20 19 19 19 19 19 19 19 19 19 18 18 19 19 18 18 18 19 18 18 18 18 18 18 18 18 18
22 19 20 21 23 21 25 25 25 24 23 21 21 20 19 20 22 21 21 21 20 20 20 20 20 19 19 19 19 19 19 19 19 19 18 19 18 18 18 18 18 18 18 18 18 18 18 18 18
20 19 21 22 23 24 25 25 24 23 22 22 21 19 19 20 20 21 20 20 20 20 20 20 20 19 19 19 19 19 19 18 19 19 18 19 19 19 18 18 18 18 18 18 18 18 18 19 19
20 19 21 23 24 25 25 25 24 23 23 22 22 19 18 20 20 20 20 20 20 19 20 20 20 19 19 19 19 19 19 19 19 19 19 19 19 19 19 19 19 18 19 19 19 19 19 19 18
21 19 21 25 25 26 26 25 24 24 23 23 22 22 21 19 20 20 19 19 19 19 19 19 20 20 20 19 19 19 19 19 19 19 19 19 19 19 19 18 18 18 18 19 19 18 18 19 18
21 19 24 26 26 26 26 25 24 23 23 22 21 21 21 20 20 20 19 19 19 19 19 19 20 20 20 19 19 20 20 20 20 19 19 19 19 19 18 19 19 18 19 18 18 18 18 18 18
21 22 24 28 28 28 27 25 25 23 21 22 20 20 20 19 20 20 20 21 21 20 20 20 20 20 20 20 20 20 20 20 20 19 19 19 19 19 19 19 19 19 19 19 19 18 18 18 18
22 24 25 29 28 27 26 25 25 24 24 24 23 22 20 19 20 20 21 20 20 20 20 20 20 20 20 20 20 20 20 20 20 20 19 19 19 19 19 19 19 19 19 19 18 19 18 18 18
23 25 28 29 29 28 26 25 25 24 24 24 22 21 21 21 21 21 21 21 20 20 20 20 20 20 20 20 20 20 20 20 20 20 19 19 19 19 19 19 19 18 18 19 18 18 18 18 18
26 28 29 29 28 27 26 25 25 24 24 22 21 22 21 21 21 21 21 21 21 21 21 21 20 20 20 20 20 20 20 20 20 19 19 20 20 20 20 19 19 19 19 19 19 19 19 19 18
27 27 27 27 27 25 26 25 23 24 23 22 21 22 21 21 21 22 22 22 22 21 21 21 21 20 20 20 20 20 20 20 20 20 20 20 20 20 20 20 20 19 19 19 19 19 18 19 18
26 26 26 28 26 26 25 22 24 24 24 23 23 22 22 22 22 23 23 23 22 22 21 21 21 21 21 20 20 20 20 20 20 20 20 20 20 20 20 19 20 20 19 19 18 19 19 19 19
22 25 25 27 27 26 25 23 24 24 24 24 24 24 24 23 23 23 23 23 23 22 22 21 21 21 21 20 20 20 20 21 21 20 20 20 20 20 19 19 19 19 19 19 19 19 19 19 19
25 24 24 25 26 26 24 23 24 24 24 24 25 25 24 24 25 24 24 24 23 22 22 22 22 21 21 20 20 20 20 20 21 21 20 20 20 20 20 20 19 19 19 19 19 19 19 19 18
26 26 26 27 27 26 24 24 24 24 24 24 24 25 25 25 26 25 25 24 23 23 23 23 22 21 21 21 21 20 20 20 21 21 21 21 20 20 20 20 20 19 20 20 19 19 19 19 19
27 27 26 27 27 26 24 24 23 24 24 24 24 25 25 25 25 25 24 24 24 24 23 23 23 22 22 21 21 21 21 21 21 21 21 21 21 21 21 20 20 20 19 19 19 19 19 19 19
26 26 27 27 26 26 24 24 24 25 25 25 25 26 26 26 25 25 24 24 24 24 24 24 23 22 22 22 21 21 21 21 21 21 21 21 21 21 21 21 20 20 19 20 20 19 19 19 19
25 29 29 28 24 23 25 22 22 25 25 25 25 25 26 26 26 26 25 25 25 24 24 24 24 23 23 22 22 21 21 21 21 21 21 21 21 21 21 21 20 20 20 21 20 20 19 19 19
28 29 28 27 24 24 24 24 24 24 24 25 26 26 26 27 26 26 26 25 25 25 24 24 24 24 23 23 23 22 22 21 21 21 22 22 21 21 21 21 21 20 20 20 20 20 19 19 19
29 28 25 21 22 24 24 24 23 22 26 26 27 27 27 26 26 27 26 26 25 25 25 24 24 24 24 23 23 22 22 22 21 21 21 21 21 21 21 21 21 21 21 21 20 20 19 19 20
26 24 23 25 23 24 23 23 25 26 27 27 27 27 27 27 26 26 26 26 26 25 25 25 24 24 24 24 23 23 23 22 22 21 21 21 21 21 22 21 21 21 21 21 20 20 19 19 23
27 24 23 26 24 24 22 25 27 28 29 29 29 29 28 27 27 27 28 26 27 26 26 25 25 25 24 24 24 23 23 23 22 22 21 21 21 22 22 21 21 21 21 21 21 20 19 19 21
29 26 24 22 22 22 24 25 28 28 26 28 29 29 28 28 28 29 27 27 27 28 27 27 26 26 25 25 24 24 24 23 23 23 22 22 22 22 21 21 21 21 21 21 21 20 20 20 20
28 26 27 21 25 25 24 26 25 28 27 26 27 28 28 29 28 29 27 27 28 28 29 28 27 27 27 26 25 25 24 24 24 23 23 23 22 22 21 21 21 21 21 21 20 20 20 20 20
26 25 25 22 21 23 23 24 24 27 26 25 27 29 29 29 29 30 29 29 29 30 28 29 28 28 27 26 26 25 25 24 24 24 24 23 23 22 22 22 21 21 21 20 20 20 20 20 20
27 26 23 22 24 19 21 23 28 28 27 27 28 29 30 31 32 32 31 30 28 29 30 29 29 28 28 28 27 26 26 25 24 24 24 23 23 22 22 21 21 21 20 20 20 20 20 20 20
Height
1515 1515 1516 1515 1524 1523 1530 1523 1511 1513 1514 1514 1516 1518 1520 1522 1524 1536 1529 1533 1537 1539 1541 1543 1546 1547 1548 1549 1550 1550 1550 1551 1552 1552 1553 1555 1555 1555 1555 1556 1557 1558 1559 1560 1560 1562 1563 1564 1566
1515 1517 1516 1516 1529 1538 1534 1516 1517 1513 1513 1515 1517 1519 1520 1526 1524 1525 1530 1534 1538 1540 1542 1545 1547 1549 1549 1550 1551 1551 1551 1553 1554 1553 1554 1555 1556 1556 1556 1558 1559 1560 1561 1562 1562 1564 1565 1566 1567
1514 1517 1518 1517 1529 1538 1531 1516 1516 1516 1516 1516 1519 1521 1524 1527 1527 1528 1531 1534 1539 1542 1544 1546 1548 1549 1551 1551 1552 1552 1553 1554 1555 1555 1556 1557 1557 1558 1558 1560 1561 1562 1563 1564 1565 1566 1566 1567 1567
1514 1517 1519 1523 1528 1521 1519 1517 1516 1517 1518 1518 1521 1525 1529 1529 1530 1531 1534 1537 1541 1543 1545 1547 1549 1550 1552 1552 1553 1554 1555 1555 1556 1556 1558 1558 1558 1559 1560 1562 1563 1565 1566 1566 1566 1567 1567 1568 1568
1514 1516 1524 1526 1523 1516 1515 1515 1514 1516 1519 1521 1523 1529 1531 1533 1533 1534 1536 1539 1542 1543 1546 1548 1550 1552 1553 1554 1554 1555 1556 1557 1557 1558 1559 1559 1560 1561 1563 1564 1566 1567 1568 1568 1568 1568 1569 1569 1569
1514 1518 1530 1535 1523 1522 1517 1518 1516 1518 1520 1523 1527 1529 1535 1535 1535 1537 1539 1541 1544 1546 1547 1550 1552 1553 1554 1554 1555 1556 1557 1557 1559 1559 1560 1561 1561 1563 1565 1566 1568 1569 1569 1569 1570 1570 1570 1569 1570
1517 1522 1528 1526 1522 1521 1517 1519 1516 1518 1521 1526 1527 1531 1536 1537 1539 1539 1541 1544 1546 1547 1549 1551 1553 1553 1555 1555 1556 1557 1558 1559 1560 1560 1561 1563 1563 1564 1566 1567 1568 1569 1570 1570 1571 1571 1570 1571 1571
1519 1523 1524 1521 1523 1521 1516 1519 1518 1518 1525 1527 1528 1531 1536 1537 1539 1541 1544 1546 1547 1549 1550 1552 1554 1555 1556 1557 1557 1558 1558 1560 1561 1561 1562 1563 1564 1565 1567 1568 1569 1570 1570 1570 1571 1572 1572 1572 1571
1520 1527 1528 1517 1514 1513 1514 1518 1524 1523 1524 1527 1528 1528 1531 1537 1540 1543 1545 1547 1548 1549 1550 1552 1554 1555 1557 1558 1558 1558 1559 1561 1562 1562 1564 1565 1565 1566 1568 1569 1570 1570 1571 1572 1572 1572 1572 1572 1572
1521 1529 1518 1507 1505 1507 1510 1513 1519 1524 1527 1528 1527 1529 1534 1537 1540 1542 1544 1546 1547 1548 1549 1552 1555 1557 1557 1558 1558 1559 1560 1561 1563 1563 1564 1566 1566 1567 1568 1570 1570 1571 1572 1572 1573 1573 1573 1572 1572
1520 1522 1510 1505 1506 1507 1511 1517 1518 1523 1530 1525 1526 1530 1534 1537 1540 1542 1544 1545 1546 1548 1550 1552 1555 1557 1557 1558 1559 1560 1561 1562 1564 1564 1565 1566 1567 1568 1569 1570 1571 1571 1572 1573 1573 1573 1573 1572 1572
1518 1510 1509 1506 1507 1509 1512 1516 1520 1520 1519 1523 1526 1528 1532 1536 1538 1540 1543 1545 1547 1548 1550 1553 1555 1556 1558 1559 1559 1560 1561 1562 1564 1565 1566 1567 1568 1569 1570 1571 1572 1572 1573 1573 1574 1573 1573 1572 1572
1518 1508 1507 1507 1508 1509 1511 1515 1518 1522 1521 1524 1529 1531 1533 1535 1538 1542 1545 1547 1548 1549 1551 1553 1555 1557 1558 1559 1560 1560 1562 1563 1564 1565 1567 1568 1568 1570 1571 1570 1571 1572 1572 1573 1572 1573 1572 1572 1571
1511 1509 1506 1507 1509 1510 1513 1518 1518 1523 1523 1526 1529 1530 1532 1535 1537 1541 1543 1545 1547 1549 1551 1552 1555 1557 1559 1560 1561 1561 1563 1564 1565 1566 1567 1568 1569 1570 1571 1571 1571 1571 1572 1571 1572 1571 1571 1570 1570
1512 1513 1509 1509 1511 1515 1515 1522 1521 1520 1524 1526 1529 1530 1532 1534 1538 1538 1540 1542 1544 1547 1550 1552 1554 1556 1558 1560 1561 1562 1563 1564 1565 1566 1567 1567 1568 1569 1570 1570 1570 1571 1571 1571 1571 1570 1570 1569 1569
1517 1514 1523 1511 1511 1514 1514 1530 1519 1520 1523 1525 1527 1530 1531 1532 1534 1536 1539 1541 1543 1546 1547 1550 1552 1554 1557 1558 1560 1560 1561 1563 1564 1566 1567 1567 1568 1568 1568 1568 1569 1570 1570 1570 1570 1569 1568 1567 1567
1528 1532 1525 1515 1506 1510 1516 1524 1516 1519 1520 1522 1524 1526 1528 1530 1531 1533 1536 1538 1540 1543 1545 1547 1550 1552 1554 1557 1559 1560 1562 1562 1564 1565 1566 1567 1568 1568 1567 1568 1568 1568 1569 1569 1569 1569 1568 1567 1566
1530 1529 1522 1518 1509 1510 1515 1516 1515 1515 1517 1517 1519 1521 1523 1525 1526 1527 1532 1534 1537 1540 1542 1544 1546 1549 1552 1555 1557 1559 1560 1561 1562 1563 1564 1565 1566 1567 1567 1567 1567 1567 1568 1568 1568 1567 1567 1566 1565
1512 1515 1513 1503 1501 1507 1513 1513 1512 1516 1516 1516 1516 1517 1519 1520 1521 1524 1528 1531 1533 1536 1539 1541 1544 1547 1549 1552 1554 1555 1556 1559 1561 1561 1562 1563 1565 1566 1566 1567 1567 1567 1567 1567 1567 1566 1566 1566 1565
1505 1508 1506 1499 1497 1503 1512 1514 1511 1513 1510 1509 1510 1512 1513 1516 1520 1522 1525 1528 1530 1532 1535 1538 1541 1544 1547 1550 1552 1554 1555 1557 1559 1560 1561 1562 1563 1565 1566 1566 1566 1567 1567 1567 1567 1566 1566 1566 1564
1504 1509 1503 1509 1502 1503 1510 1519 1512 1509 1511 1511 1508 1506 1510 1511 1514 1518 1521 1524 1527 1529 1532 1534 1537 1541 1544 1547 1550 1551 1552 1555 1557 1559 1560 1562 1563 1564 1565 1565 1565 1566 1566 1566 1567 1566 1565 1565 1564
1516 1489 1491 1498 1511 1526 1504 1539 1509 1502 1503 1504 1503 1503 1502 1505 1510 1513 1516 1519 1522 1525 1528 1532 1535 1538 1541 1545 1547 1548 1549 1551 1554 1556 1559 1560 1561 1562 1563 1563 1564 1563 1565 1564 1566 1566 1566 1565 1563
1495 1488 1490 1489 1508 1508 1515 1527 1503 1493 1501 1496 1493 1495 1495 1497 1501 1506 1510 1513 1517 1522 1525 1528 1531 1534 1537 1540 1542 1544 1546 1549 1553 1554 1556 1557 1559 1560 1561 1561 1562 1563 1564 1564 1565 1564 1564 1563 1560
1481 1484 1493 1504 1514 1532 1512 1518 1507 1498 1479 1481 1485 1489 1488 1491 1495 1500 1505 1510 1513 1518 1521 1524 1527 1530 1534 1537 1539 1541 1544 1547 1550 1553 1555 1556 1558 1559 1559 1560 1561 1562 1561 1562 1563 1563 1563 1562 1557
1488 1505 1533 1531 1537 1536 1508 1522 1493 1470 1464 1464 1470 1476 1480 1485 1489 1494 1499 1503 1507 1511 1515 1519 1522 1526 1530 1533 1536 1539 1542 1545 1547 1550 1553 1555 1556 1557 1559 1559 1560 1560 1560 1561 1562 1563 1559 1558 1548
1490 1501 1532 1539 1543 1526 1511 1514 1482 1452 1449 1452 1458 1463 1471 1479 1484 1486 1487 1494 1500 1506 1510 1515 1518 1521 1525 1529 1532 1535 1538 1541 1544 1546 1548 1551 1553 1554 1556 1557 1558 1559 1559 1559 1559 1559 1557 1554 1549
1484 1501 1487 1516 1520 1529 1508 1487 1459 1450 1447 1449 1454 1461 1467 1471 1475 1478 1481 1489 1494 1499 1503 1508 1513 1517 1521 1524 1527 1529 1532 1535 1539 1542 1544 1546 1548 1549 1550 1552 1553 1553 1553 1554 1553 1553 1550 1548 1546
1476 1478 1500 1515 1526 1530 1513 1498 1494 1462 1454 1453 1453 1453 1457 1463 1469 1473 1478 1482 1489 1494 1498 1503 1507 1511 1514 1519 1522 1526 1529 1532 1535 1538 1540 1542 1544 1546 1547 1548 1548 1549 1548 1548 1548 1546 1544 1542 1542
1482 1488 1487 1499 1512 1522 1526 1505 1457 1453 1449 1451 1447 1447 1450 1456 1461 1465 1471 1474 1480 1487 1493 1496 1500 1504 1508 1513 1519 1522 1525 1527 1530 1532 1535 1536 1539 1541 1543 1544 1545 1544 1544 1544 1543 1542 1540 1537 1535
1470 1474 1484 1507 1505 1511 1509 1494 1441 1441 1440 1440 1442 1442 1443 1449 1453 1458 1463 1468 1472 1479 1485 1490 1493 1497 1501 1506 1512 1516 1521 1524 1526 1527 1529 1532 1534 1536 1537 1538 1539 1540 1540 1540 1540 1539 1538 1535 1532
Wind_Speed
2 5 3 1 3 5 1 3 2 3 2 3 11 3 6 6 1 3 20 22 21 18 18 17 15 15 15 13 11 9 9 9 11 11 12 13 14 15 15 14 12 10 11 13 15 11 13 12 12
1 2 2 2 4 4 2 3 2 2 9 18 10 9 7 3 5 19 29 23 19 17 17 17 16 15 14 12 10 9 9 8 9 10 11 12 14 14 15 14 12 11 11 12 13 11 12 12 11
4 1 2 3 3 4 4 1 5 11 15 6 5 9 4 3 13 28 19 24 19 16 17 17 16 14 12 11 10 9 9 9 9 10 11 13 14 15 15 14 13 11 12 12 11 11 11 12 14
6 2 1 3 2 4 1 8 14 12 10 6 13 6 8 5 16 15 23 22 18 17 17 17 14 12 11 10 9 8 9 10 10 11 11 13 15 14 14 13 12 12 11 11 10 9 12 13 12
5 3 4 4 2 3 5 19 17 8 7 9 10 5 7 15 15 21 22 20 16 16 17 16 13 11 11 10 10 9 9 10 11 11 13 12 13 13 12 12 11 10 9 9 9 8 10 11 11
5 3 4 2 5 3 12 18 17 8 14 15 14 10 5 10 17 21 21 19 16 16 17 15 11 10 11 9 10 10 9 10 11 12 13 11 12 11 10 10 10 9 8 7 7 6 7 10 10
4 2 2 1 5 5 9 18 15 14 15 8 18 4 8 18 19 22 22 19 16 16 16 14 11 10 10 10 10 10 10 10 11 13 12 11 11 11 11 9 8 8 7 6 7 6 6 9 9
5 3 4 2 5 4 12 11 19 22 10 19 19 6 8 26 22 21 20 14 15 14 14 14 12 10 10 11 11 11 10 10 11 12 11 10 10 10 8 8 8 7 6 6 8 7 6 6 10
4 3 1 3 5 4 22 8 13 6 19 5 11 11 27 28 23 22 20 17 15 14 15 14 13 11 10 11 11 11 10 11 11 11 11 10 10 9 8 8 7 5 5 6 8 6 1 7 8
3 2 4 5 5 6 23 21 19 8 16 4 14 21 28 28 26 25 22 19 16 14 17 16 14 13 13 13 12 12 13 12 11 11 10 10 10 9 7 6 5 4 4 5 5 4 2 6 6
5 4 4 5 8 15 11 17 12 22 5 15 28 31 31 32 29 25 23 19 13 11 16 16 15 15 14 13 14 14 14 12 12 11 10 12 10 8 6 5 3 3 4 4 4 5 3 5 5
1 12 14 8 11 16 12 20 10 19 10 22 28 32 34 33 33 28 24 21 19 14 14 16 17 16 15 14 14 15 14 12 11 9 10 10 7 5 4 5 4 2 2 2 3 5 6 6 8
4 6 15 15 14 17 21 14 9 8 14 25 31 34 33 33 30 25 21 18 19 16 14 20 19 19 16 14 14 12 12 11 10 10 10 8 4 3 2 2 2 2 4 5 6 7 9 11 13
4 8 6 7 10 16 13 9 12 13 24 28 33 34 33 33 31 26 24 20 21 19 16 20 21 18 15 13 11 9 8 10 9 8 8 6 3 2 2 3 3 3 4 6 7 7 9 10 12
5 2 4 5 5 5 20 1 5 25 25 29 30 34 33 33 31 30 24 23 20 21 18 19 20 17 16 12 11 9 10 10 10 8 10 4 3 5 6 7 8 7 8 8 9 11 13 14 17
5 4 2 4 8 10 4 6 5 28 28 25 27 27 29 30 33 30 29 25 23 21 24 20 19 18 17 14 13 7 9 12 11 10 9 8 3 4 9 10 10 9 11 10 11 12 15 15 15
3 3 5 4 14 6 4 3 12 29 28 26 28 30 30 27 31 32 28 28 26 24 23 23 21 19 17 17 16 11 11 11 8 11 11 8 5 7 9 12 13 14 13 14 13 15 17 17 16
7 5 4 7 6 4 6 6 13 27 26 26 29 29 30 29 31 34 33 27 26 27 22 20 22 21 18 20 17 17 17 14 11 12 13 9 8 8 10 11 11 13 15 16 16 17 15 17 17
10 7 7 5 6 6 6 6 17 25 23 22 26 32 32 30 27 27 31 28 24 25 25 23 24 24 21 24 25 24 26 19 15 12 10 11 8 8 11 12 10 11 13 13 14 16 16 14 15
13 12 15 3 7 6 6 7 10 21 28 29 28 32 36 34 32 31 32 30 26 24 25 26 26 24 22 21 17 18 23 23 18 13 11 10 10 11 12 11 12 12 12 14 15 15 16 13 13
5 4 11 2 3 3 6 4 7 13 21 24 28 36 36 37 39 36 36 33 28 28 27 25 27 27 24 20 19 17 19 23 21 13 13 12 12 12 12 11 10 11 14 14 13 14 15 13 13
3 7 13 7 6 5 7 5 8 15 18 17 26 30 38 39 43 40 38 36 34 31 27 23 25 27 23 21 21 20 20 25 21 18 15 14 16 16 13 13 13 11 9 10 10 12 14 15 16
11 6 9 9 2 6 2 2 7 14 15 20 26 32 39 43 47 46 43 39 36 33 31 28 26 27 24 23 22 20 21 24 21 17 13 14 12 14 14 13 12 12 10 10 9 10 12 15 19
8 5 7 5 4 1 7 9 6 8 26 21 23 34 41 41 46 46 44 41 38 36 34 34 32 31 27 25 23 21 20 25 25 21 18 16 16 15 14 12 12 13 15 13 10 10 10 12 22
6 6 4 4 2 7 4 4 9 9 14 22 26 36 42 43 42 45 46 45 44 42 39 37 36 35 32 27 25 24 21 24 25 22 20 18 16 15 12 11 12 12 15 15 16 14 14 12 7
4 8 5 4 3 7 5 5 7 9 22 37 38 43 42 41 44 45 50 49 45 43 42 40 39 39 36 31 27 25 24 23 22 21 20 20 19 16 14 14 16 15 14 13 13 16 19 21 19
5 4 7 6 2 2 3 8 12 4 6 16 25 28 31 39 47 51 49 48 48 44 44 42 40 39 38 34 31 28 26 26 25 21 21 23 21 17 15 15 17 17 18 15 11 13 18 22 22
7 6 1 3 2 5 5 4 7 10 9 6 11 25 34 42 43 50 45 49 49 47 43 42 41 38 37 37 34 31 27 26 25 24 24 23 21 21 21 21 20 20 19 16 14 18 20 21 20
1 3 2 5 5 5 4 7 8 10 8 10 15 28 34 42 44 48 48 49 49 48 46 44 43 41 39 39 36 34 31 28 27 26 26 25 23 22 22 21 20 19 18 18 23 21 20 19 18
3 4 6 5 7 4 3 7 5 9 7 17 26 33 40 45 48 47 47 47 46 49 49 46 44 43 39 36 38 35 32 29 27 27 26 26 25 23 23 20 19 20 24 22 16 17 17 17 19
Wind_Direction
54 327 333 316 63 68 58 238 303 116 93 75 156 153 118 71 137 184 145 154 159 154 152 153 151 151 149 150 146 139 129 132 129 134 130 137 136 133 133 130 122 113 119 120 115 127 121 119 115
313 241 301 70 82 84 298 280 183 196 129 110 96 117 55 65 107 138 149 158 160 156 155 156 154 158 153 148 150 143 137 137 132 131 129 140 137 137 132 131 126 113 117 122 128 126 120 122 120
77 201 247 103 106 156 145 220 118 98 121 106 109 77 58 86 133 144 157 156 163 159 159 161 161 160 157 151 154 144 143 141 139 130 133 137 135 132 128 128 125 122 118 124 121 123 122 127 122
20 29 70 76 23 325 248 143 135 130 89 87 112 63 82 117 128 146 150 155 161 158 160 162 163 162 164 161 156 151 152 143 143 136 140 135 131 131 127 126 122 118 114 119 127 134 133 137 139
31 60 42 49 106 335 129 151 149 132 114 117 100 102 90 138 138 145 147 151 155 156 157 158 160 165 170 168 159 158 149 149 147 143 140 136 128 127 127 127 125 125 120 119 125 132 144 156 150
45 61 60 90 140 274 148 155 142 110 114 111 110 109 130 175 142 148 147 145 154 157 156 157 156 155 163 168 162 158 157 150 151 152 143 140 137 127 129 128 128 130 127 123 116 122 151 162 168
100 47 146 213 176 177 168 171 145 135 131 118 134 89 139 171 155 149 153 151 158 159 166 172 167 161 166 169 165 167 158 156 152 153 147 142 139 137 138 138 133 131 132 129 135 140 156 162 175
80 74 310 202 186 171 148 158 151 138 142 142 145 161 163 172 163 159 159 163 174 180 185 190 182 173 172 172 166 169 154 157 155 149 149 145 137 138 136 136 136 130 124 131 132 124 138 173 190
45 55 304 242 130 156 159 139 150 137 149 175 183 181 167 168 171 168 172 178 187 195 194 191 186 178 173 170 166 165 160 156 154 149 146 144 138 136 139 145 137 139 137 144 142 109 75 181 207
97 62 242 233 143 150 170 148 153 131 154 123 115 153 163 176 179 178 177 176 175 177 179 182 179 178 174 172 166 163 157 154 150 145 141 142 133 129 135 145 175 179 181 178 190 223 339 193 220
166 220 248 248 155 138 128 144 155 141 191 180 146 162 172 180 185 186 184 180 166 163 169 170 171 173 173 170 163 158 154 152 150 152 144 146 136 118 117 131 160 193 201 216 225 237 226 221 242
206 243 256 194 163 138 140 150 144 168 194 189 169 171 175 185 189 194 194 191 181 174 173 170 171 168 164 163 158 157 155 154 157 152 165 156 146 143 123 100 140 132 153 223 264 251 255 262 276
261 260 258 219 190 163 144 151 160 193 182 177 174 176 185 188 196 200 202 196 191 184 175 171 168 163 159 153 155 154 158 162 165 164 164 165 153 146 181 126 145 229 267 271 313 285 275 283 285
239 264 30 167 156 152 143 137 134 163 169 170 176 185 191 195 198 200 206 203 199 192 182 175 175 174 177 175 173 172 174 171 186 188 168 153 157 165 245 263 258 268 275 288 301 308 282 300 297
303 64 357 127 97 97 120 303 178 167 175 176 183 192 197 202 202 206 211 203 197 191 184 187 185 180 185 184 196 211 229 222 204 180 187 188 213 225 244 267 270 272 274 288 302 295 311 306 294
350 51 136 215 139 174 119 241 170 175 177 185 194 199 210 216 213 215 215 212 204 199 199 194 193 195 195 202 205 216 216 209 215 211 208 219 248 259 259 267 275 280 269 280 289 299 304 310 317
338 237 209 247 193 143 173 204 195 183 185 195 201 209 215 218 224 224 221 217 213 206 202 206 206 213 211 210 209 215 215 208 220 222 226 226 249 280 276 273 278 268 276 283 295 302 309 308 317
241 229 236 217 201 170 181 213 179 193 192 201 204 216 221 226 228 229 221 219 218 210 207 211 215 219 224 218 219 216 225 223 234 229 234 236 250 268 281 278 276 263 269 281 286 297 304 306 321
240 232 225 231 176 144 212 186 184 204 204 211 209 216 227 227 227 208 211 210 212 209 211 217 219 216 220 224 224 227 228 224 230 244 239 239 251 268 284 271 265 270 272 284 289 293 299 309 323
259 246 245 273 182 162 166 228 195 199 215 210 211 215 222 229 214 207 203 206 212 215 218 225 224 216 216 216 225 226 220 221 226 241 237 247 250 265 276 282 262 266 276 285 291 298 306 316 320
273 216 270 247 113 60 112 300 186 223 227 228 226 221 222 224 212 209 206 210 215 218 221 222 223 221 226 222 219 218 217 215 225 225 237 235 243 250 271 282 281 282 280 286 293 300 307 316 321
221 238 246 202 159 200 157 259 237 205 215 223 226 219 221 221 218 216 214 214 217 220 222 225 227 228 231 223 219 219 216 213 216 230 231 240 247 255 267 276 284 296 301 300 305 308 315 317 319
268 192 228 179 161 116 144 20 254 184 214 220 222 218 222 225 222 221 218 220 221 222 223 224 228 229 230 225 222 222 222 217 220 231 223 237 246 254 261 278 287 290 300 308 317 317 321 320 311
285 344 36 51 84 353 205 182 261 181 213 216 220 221 221 220 224 228 226 223 224 224 225 227 227 229 230 227 225 224 226 218 221 227 229 233 259 264 269 276 285 288 285 287 300 303 313 329 331
73 50 333 349 32 229 180 130 249 234 223 207 207 213 220 222 222 225 227 223 226 224 225 227 229 230 230 228 229 227 229 227 231 235 238 250 249 255 261 271 288 301 301 289 282 294 291 282 305
204 151 159 242 232 263 190 231 265 234 225 210 208 210 212 215 223 228 233 226 228 229 229 229 231 230 231 230 230 229 229 231 234 234 231 231 245 250 262 270 282 291 304 306 282 281 287 284 281
262 193 195 129 73 348 238 293 311 331 258 201 204 206 208 213 220 229 231 228 229 231 231 231 232 233 233 233 232 230 227 229 231 231 228 232 242 250 259 264 278 278 287 300 295 288 295 296 294
183 174 275 11 216 247 281 265 238 314 291 232 200 201 206 216 218 229 226 230 231 233 234 234 234 236 235 233 233 234 234 231 233 232 232 236 243 250 256 263 268 273 279 284 292 296 301 302 299
324 267 85 129 148 189 249 260 213 228 217 204 212 210 207 214 219 229 230 233 232 230 233 235 235 235 237 236 236 235 236 236 235 236 237 240 243 247 256 261 268 274 279 287 293 291 293 287 292
274 246 162 138 262 219 190 266 185 234 227 199 215 219 211 219 225 229 231 231 230 227 230 232 236 235 235 237 235 233 236 238 239 240 241 244 248 251 255 252 259 272 281 284 280 289 293 289 291